Content
SEND FEEDBACK

Daily
Averages
Monthly
Summary
United States of America

ALBERT LEA, MINNESOTA


Home > North America > United States > Minnesota
Elevation: 1244 feet     Latitude: 43 40N     Longitude: 093 22W

WEATHER
 
SELECT A DAY
Number of Records: 469,974;   Date Range: 1/1/95 - 11/24/14
 
SHARE

PRINT THIS DATA

[ ← Previous Day ]
WEATHER ALMANAC - JANUARY 31, 2013
[ Next Day → ]
[ °C ]   °F
Weather ElementAverageHighLow
Temperature-0.5 °F6.8 °F (12:31 am)-7.6 °F (11:50 pm)
Dewpoint-5.8 °F1.4 °F (12:31 am)-11.2 °F (9:30 pm)
Humidity78.6 %85 % (12:50 am)66 % (12:50 pm)
Barometer30.00 in30.24 in (11:30 pm)29.76 in (12:31 am)
Wind Speed13.4 mph19.6 mph (12:10 pm)
Wind Gust28.8 mph (12:10 pm)
Weather ElementAverage
Visibility5 mi
Wind DirectionWNW (301.1 °)

Weather ElementTotal
Precipitation---
Heating Degree Days65.4 (Base 65)
Averaged from 70 records on January 31, 2013
WEATHER CONDITIONS BREAKOUT
WIND DIRECTION BREAKOUT
WEATHER BY HOUR - JANUARY 31, 2013
[ °C ]   °F
Local TimeTemperatureDewpointHumidityBarometerVisibilityWind DirectionWind SpeedGust SpeedPrecipitationEventsConditions
12:31 AM6.8 °F1.4 °F79 %29.76 in7.0 miWNW (290°)13.8 mph24.2 mphOvercast
12:50 AM5.0 °F1.4 °F85 %29.77 in7.0 miWNW (290°)12.7 mph20.7 mphOvercast
1:10 AM5.0 °F1.4 °F85 %29.77 in7.0 miWNW (300°)11.5 mph25.3 mphOvercast
1:31 AM5.0 °F1.4 °F85 %29.77 in7.0 miWNW (300°)11.5 mph26.5 mphOvercast
1:50 AM5.0 °F1.4 °F85 %29.78 in5.0 miWest (280°)12.7 mph21.9 mphOvercast
2:10 AM3.2 °F-0.4 °F85 %29.78 in5.0 miWNW (290°)11.5 mph20.7 mphOvercast
2:30 AM3.2 °F-0.4 °F85 %29.79 in7.0 miWNW (300°)11.5 mph23.0 mphOvercast
2:50 AM3.2 °F-0.4 °F85 %29.79 in7.0 miWNW (300°)12.7 mph24.2 mphOvercast
3:11 AM3.2 °F-0.4 °F85 %29.79 in10.0 miWNW (300°)13.8 mph19.6 mphOvercast
3:30 AM3.2 °F-0.4 °F85 %29.79 in7.0 miWNW (290°)10.4 mph20.7 mphOvercast
3:50 AM3.2 °F-0.4 °F85 %29.80 in7.0 miNW (310°)12.7 mph20.7 mphOvercast
4:11 AM1.4 °F-2.2 °F85 %29.80 in5.0 miWNW (290°)13.8 mph20.7 mphOvercast
4:30 AM1.4 °F-2.2 °F85 %29.81 in4.0 miWNW (290°)12.7 mph21.9 mphOvercast
4:51 AM1.4 °F-2.2 °F85 %29.82 in4.0 miWNW (290°)11.5 mph19.6 mphSnowLight Snow
5:10 AM1.4 °F-2.2 °F85 %29.83 in4.0 miWNW (290°)16.1 mph23.0 mphSnowLight Snow
5:30 AM1.4 °F-4.0 °F78 %29.84 in5.0 miWNW (300°)13.8 mph24.2 mphHaze
5:50 AM1.4 °F-4.0 °F78 %29.84 in5.0 miWNW (290°)13.8 mph26.5 mphHaze
6:10 AM-0.4 °F-4.0 °F85 %29.85 in4.0 miWNW (300°)16.1 mph26.5 mphMostly Cloudy
6:30 AM-0.4 °F-5.8 °F78 %29.85 in5.0 miWNW (300°)15.0 mph25.3 mphScattered Clouds
6:50 AM-0.4 °F-5.8 °F78 %29.86 in4.0 miWNW (300°)16.1 mph25.3 mphClear
7:10 AM-0.4 °F-5.8 °F78 %29.87 in5.0 miWNW (300°)12.7 mph19.6 mphMostly Cloudy
7:30 AM-0.4 °F-5.8 °F78 %29.88 in4.0 miWNW (290°)12.7 mph24.2 mphOvercast
7:51 AM-0.4 °F-5.8 °F78 %29.89 in3.0 miWNW (300°)15.0 mph21.9 mphMostly Cloudy
8:10 AM-2.2 °F-5.8 °F85 %29.90 in4.0 miWNW (300°)13.8 mph20.7 mphClear
8:30 AM-0.4 °F-5.8 °F78 %29.91 in4.0 miWNW (290°)16.1 mph26.5 mphHaze
8:50 AM-0.4 °F-5.8 °F78 %29.92 in5.0 miWNW (300°)15.0 mph26.5 mphHaze
9:15 AM-0.4 °F-5.8 °F78 %29.94 in2.5 miWNW (300°)12.7 mph23.0 mphHaze
9:31 AM-0.4 °F-5.8 °F78 %29.94 in4.0 miWNW (300°)16.1 mph24.2 mphHaze
9:50 AM-0.4 °F-5.8 °F78 %29.95 in2.5 miWNW (300°)11.5 mph23.0 mphHaze
10:10 AM-0.4 °F-5.8 °F78 %29.96 in1.2 miWNW (300°)13.8 mph21.9 mphHaze
10:31 AM-0.4 °F-5.8 °F78 %29.98 in1.5 miNW (310°)12.7 mph23.0 mphHaze
11:10 AM-0.4 °F-7.6 °F72 %29.99 in5.0 miNW (310°)18.4 mph26.5 mphHaze
11:30 AM-0.4 °F-7.6 °F72 %30.00 in3.0 miWNW (300°)17.3 mph23.0 mphHaze
11:51 AM-0.4 °F-7.6 °F72 %30.01 in4.0 miNW (310°)17.3 mph26.5 mphHaze
12:10 PM-0.4 °F-7.6 °F72 %30.01 in3.0 miNW (310°)19.6 mph28.8 mphHaze
12:30 PM-0.4 °F-7.6 °F72 %30.01 in3.0 miWNW (300°)15.0 mph27.6 mphHaze
12:50 PM1.4 °F-7.6 °F66 %30.02 in2.5 miNW (310°)15.0 mph21.9 mphHaze
1:10 PM-0.4 °F-7.6 °F72 %30.03 in2.5 miWNW (290°)15.0 mph25.3 mphHaze
1:31 PM-0.4 °F-5.8 °F78 %30.04 in1.8 miWNW (300°)13.8 mph24.2 mphHaze
1:50 PM-0.4 °F-5.8 °F78 %30.04 in2.0 miWNW (300°)18.4 mph26.5 mphHaze
2:10 PM1.4 °F-5.8 °F72 %30.05 in2.0 miNW (310°)13.8 mph27.6 mphHaze
2:30 PM1.4 °F-5.8 °F72 %30.05 in1.8 miNW (310°)11.5 mph28.8 mphHaze
2:51 PM1.4 °F-5.8 °F72 %30.06 in1.2 miNW (310°)17.3 mph27.6 mphHaze
3:10 PM-0.4 °F-5.8 °F78 %30.07 in1.8 miNW (310°)12.7 mph27.6 mphHaze
3:30 PM1.4 °F-5.8 °F72 %30.08 in1.5 miNW (310°)11.5 mph25.3 mphHaze
3:50 PM-0.4 °F-5.8 °F78 %30.09 in1.0 miNW (310°)15.0 mph25.3 mphHaze
4:10 PM-0.4 °F-5.8 °F78 %30.09 in2.0 miNW (310°)16.1 mph28.8 mphHaze
4:31 PM-0.4 °F-5.8 °F78 %30.10 in1.0 miNW (310°)15.0 mph23.0 mphSnowLight Snow
4:50 PM-0.4 °F-5.8 °F78 %30.11 in1.5 miNW (320°)13.8 mph27.6 mphHaze
5:10 PM-0.4 °F-5.8 °F78 %30.12 in1.2 miNW (310°)9.2 mph24.2 mphOvercast
5:31 PM-0.4 °F-7.6 °F72 %30.13 in2.5 miNW (310°)12.7 mph24.2 mphHaze
5:50 PM-2.2 °F-7.6 °F78 %30.14 in10.0 miNW (310°)17.3 mph24.2 mphClear
6:10 PM-2.2 °F-7.6 °F78 %30.15 in4.0 miNW (310°)15.0 mph23.0 mphHaze
6:30 PM-2.2 °F-7.6 °F78 %30.16 in5.0 miNW (310°)12.7 mph23.0 mphHaze
6:51 PM-2.2 °F-9.4 °F71 %30.16 in10.0 miNW (310°)11.5 mph18.4 mphClear
7:11 PM-2.2 °F-7.6 °F78 %30.17 in5.0 miNW (310°)6.9 mph17.3 mphHaze
7:30 PM-2.2 °F-7.6 °F78 %30.17 in3.0 miNW (310°)9.2 mph17.3 mphScattered Clouds
7:50 PM-2.2 °F-7.6 °F78 %30.19 in5.0 miWNW (300°)9.2 mphHaze
8:10 PM-4.0 °F-9.4 °F78 %30.19 in5.0 miWNW (300°)9.2 mph18.4 mphHaze
8:30 PM-5.8 °F-9.4 °F84 %30.20 in7.0 miWNW (300°)9.2 mph19.6 mphClear
8:51 PM-5.8 °F-9.4 °F84 %30.21 in10.0 miWNW (300°)10.4 mph20.7 mphClear
9:10 PM-5.8 °F-9.4 °F84 %30.22 in10.0 miWNW (300°)10.4 mph19.6 mphClear
9:30 PM-5.8 °F-11.2 °F77 %30.22 in10.0 miWNW (300°)12.7 mph23.0 mphClear
9:46 PM-5.8 °F-11.2 °F77 %30.22 in10.0 miWNW (300°)15.0 mph23.0 mphClear
10:10 PM-5.8 °F-11.2 °F77 %30.23 in10.0 miWNW (290°)12.7 mph18.4 mphClear
10:30 PM-5.8 °F-11.2 °F77 %30.23 in7.0 miWNW (300°)13.8 mph24.2 mphClear
10:50 PM-5.8 °F-11.2 °F77 %30.23 in10.0 miWNW (300°)11.5 mph20.7 mphClear
11:10 PM-5.8 °F-11.2 °F77 %30.23 in10.0 miWNW (290°)11.5 mph20.7 mphClear
11:30 PM-5.8 °F-11.2 °F77 %30.24 in10.0 miWNW (300°)13.8 mph23.0 mphClear
11:50 PM-7.6 °F-11.2 °F84 %30.24 in10.0 miWNW (300°)11.5 mph19.6 mphClear
Hourly data recorded from KAEL, located miles away from Albert Lea, Minnesota







STORIES FROM OUR PARTNERS